Donegal Airport, Ireland

10:19 PM IST on April 30, 2017 (GMT +0100)
Donegal

Weather History for EIDL - July, 2014

Change the Weather History Date:

Friday, July 4, 2014

  Actual Average (EGAE) Record (EGAE)
Temperature  
Mean Temperature 58 °F -  
Max Temperature 60 °F 62 °F 71 °F (2011)
Min Temperature 55 °F 53 °F 33 °F (2007)
Degree Days  
Heating Degree Days 8    
Growing Degree Days 8 (Base 50)    
Moisture  
Dew Point 52 °F    
Average Humidity 80    
Maximum Humidity 100    
Minimum Humidity 55    
Precipitation  
Precipitation 0.00 in - - ()
Sea Level Pressure  
Sea Level Pressure 29.48 in    
Wind  
Wind Speed 13 mph ()    
Max Wind Speed 18 mph    
Max Gust Speed -    
Visibility 5.2 miles    
Events Rain    
Averages and records for this station are not official NWS values.
T = Trace of Precipitation, MM = Missing Value Source: Averaged Metar Reports

Daily Weather History Graph

Daily Weather History Graph

Search for Another Location

Airport or City:

Trip Planner

Search our weather history database for the weather conditions in past years. The results will help you decide how hot, cold, wet, or windy it might be!

Date:

Astronomy

Jul. 04, 2014 Rise Set
Actual Time 5:01 AM IST 10:13 PM IST
Civil Twilight 4:04 AM IST 11:10 PM IST
Nautical Twilight 1:52 AM IST 1:15 AM IST
Astronomical Twilight Sun does not set Sun does not set
Moon 12:58 PM IST (7/4) 12:20 AM IST (7/4)
Length of Visible Light 19h 05m
Length of Day
17h 12m
Waxing Crescent, 40% of the Moon is Illuminated
Jul 4
Waxing Crescent
Jul 5
First Quarter
Jul 12
Full
Jul 19
Last Quarter
Jul 26
New

Hourly Weather History & Observations

Time (IST) Temp. Dew Point Humidity Pressure Visibility Wind Dir Wind Speed Gust Speed Precip Events Conditions
7:30 AM 59.0 °F 57.2 °F 94% 29.42 in - SSW 17.3 mph - N/A Rain Light Rain
8:00 AM 59.0 °F 57.2 °F 94% 29.42 in 1.7 mi SW 17.3 mph - N/A Rain Light Rain
8:30 AM 59.0 °F 57.2 °F 94% 29.42 in - WSW 17.3 mph - N/A Rain Light Rain
9:00 AM 59.0 °F 57.2 °F 94% 29.42 in 3.7 mi WSW 15.0 mph - N/A   Overcast
9:30 AM 59.0 °F 57.2 °F 94% 29.44 in 1.9 mi West 12.7 mph - N/A Rain Light Rain
10:00 AM 57.2 °F 57.2 °F 100% 29.44 in 1.9 mi WNW 12.7 mph - N/A Rain Light Rain
10:30 AM 57.2 °F 55.4 °F 94% 29.44 in 3.7 mi NNW 16.1 mph - N/A Rain Light Rain
11:00 AM 55.4 °F 53.6 °F 94% 29.47 in 6.2 mi NNW 18.4 mph - N/A Rain Light Rain
11:30 AM 55.4 °F 51.8 °F 88% 29.47 in 5.6 mi North 16.1 mph - N/A   Overcast
12:00 PM 57.2 °F 51.8 °F 82% 29.47 in 6.2 mi NNW 15.0 mph - N/A   Overcast
12:30 PM 57.2 °F 51.8 °F 82% 29.50 in 6.2 mi NNW 15.0 mph - N/A   Overcast
1:00 PM 57.2 °F 50.0 °F 77% 29.50 in 6.2 mi NNW 17.3 mph - N/A   Overcast
1:30 PM 57.2 °F 48.2 °F 72% 29.50 in 6.2 mi NNW 15.0 mph - N/A   Overcast
2:00 PM 57.2 °F 46.4 °F 67% 29.53 in 6.2 mi NW 13.8 mph - N/A   Overcast
2:30 PM 59.0 °F 48.2 °F 67% 29.53 in 6.2 mi NNW 12.7 mph - N/A   Mostly Cloudy
3:00 PM 59.0 °F 48.2 °F 67% 29.53 in 6.2 mi NW 11.5 mph - N/A   Scattered Clouds
3:30 PM 59.0 °F 46.4 °F 63% 29.53 in 6.2 mi NNW 12.7 mph - N/A   Scattered Clouds
4:00 PM 60.8 °F 44.6 °F 55% 29.53 in 6.2 mi NW 12.7 mph - N/A   Partly Cloudy
4:30 PM 59.0 °F 46.4 °F 63% 29.53 in 6.2 mi NW 11.5 mph - N/A   Mostly Cloudy
5:00 PM 59.0 °F 48.2 °F 67% 29.53 in 6.2 mi NW 15.0 mph - N/A   Mostly Cloudy
5:30 PM 59.0 °F 48.2 °F 67% 29.56 in - NW 12.7 mph - N/A   Clear